Location: Brunnen
(48.6541°N, 10.9920°E)
Time: 17:25:28
(UTC+00:00)

Cosmos 1470 - Pass Details

Date: 01 June 2020
Orbit: 521 x 543 km, 82.5° (Epoch: 08 July)

Event Time Altitude Azimuth Distance (km) Brightness Sun altitude
Rises 22:05:12 0° 345° (NNW) 2,668 8.1 -17.5°
Reaches altitude 10° 22:07:24 10° 339° (NNW) 1,772 6.7 -17.6°
Maximum altitude 22:11:07 47° 266° (W) 705 3.4 -17.8°
Enters shadow 22:12:32 31° 213° (SSW) 932 3.6 -17.8°
